User: anonymous   Login
Location: Unspecified
(0.0000°N, 0.0000°E)
Time: 21:15:54
(UTC+00:00)
Language:

KORONAS-FOTON - Orbit

View from above orbital plane
View from above orbital plane
View from above satellite
View from above satellite

Ground track
Ground track

The orbit data is extracted from the following two-line orbital elements,

1 33504U 09003A   15108.76420668  .00002635  00000-0  14773-3 0  9992
2 33504 082.4407 297.5167 0019561 321.5432 038.4403 15.12818516341874
Epoch (UTC): 18 April 2015 18:20:27
Eccentricity: 0.0019561
inclination: 82.4407°
perigee height: 514 km
apogee height: 541 km
right ascension of ascending node: 297.5167°
argument of perigee: 321.5432°
revolutions per day: 15.12818516
mean anomaly at epoch: 38.4403°
orbit number at epoch: 34187

The dashed part of the orbit path shows where the satellite is in the earth's shadow,  

DLR